AJM97 MKJS-TGPY

Flight info

Callsign AJM97
Flight time 2h 18m
Altitude 35000
Route ELUTU5 KEMBO UG633 MLY UA511 GUTIM UL337 VUDAL
Aircraft A321/M-SDE3FGHIRWY/LB1

Departure

Time 2026-04-24 19:43
Airport Sangster International Airport (MKJS)

Arrival

Time 2026-04-24 22:01
Airport Maurice Bishop International Airport (TGPY)
Time Latitude Longitude Altitude Speed Heading
2026-04-24 19:03 18.49989 -77.91615 38 ft 0 kts 204°
2026-04-24 19:30 18.49997 -77.91612 29 ft 3 kts 205°
2026-04-24 19:30 18.50015 -77.91602 31 ft 3 kts 216°
2026-04-24 19:30 18.50028 -77.91590 35 ft 3 kts 256°
2026-04-24 19:31 18.50028 -77.91574 30 ft 3 kts 281°
2026-04-24 19:31 18.50025 -77.91553 29 ft 3 kts 266°
2026-04-24 19:31 18.50028 -77.91533 32 ft 3 kts 248°
2026-04-24 19:31 18.50036 -77.91514 34 ft 3 kts 245°
2026-04-24 19:32 18.50045 -77.91495 32 ft 3 kts 245°
2026-04-24 19:32 18.50054 -77.91475 32 ft 3 kts 245°
2026-04-24 19:32 18.50061 -77.91459 33 ft 1 kts 245°
2026-04-24 19:32 18.50062 -77.91458 33 ft 0 kts 245°
2026-04-24 19:34 18.50061 -77.91458 33 ft 1 kts 245°
2026-04-24 19:34 18.50046 -77.91493 32 ft 7 kts 245°
2026-04-24 19:35 18.50029 -77.91546 32 ft 11 kts 271°
2026-04-24 19:35 18.50066 -77.91614 35 ft 10 kts 267°
2026-04-24 19:35 18.50040 -77.91674 30 ft 8 kts 244°
2026-04-24 19:35 18.50017 -77.91730 35 ft 10 kts 247°
2026-04-24 19:36 18.49986 -77.91806 34 ft 11 kts 246°
2026-04-24 19:36 18.49956 -77.91876 36 ft 10 kts 246°
2026-04-24 19:36 18.49927 -77.91939 38 ft 11 kts 244°
2026-04-24 19:36 18.49890 -77.92021 36 ft 12 kts 245°
2026-04-24 19:37 18.49856 -77.92099 38 ft 11 kts 245°
2026-04-24 19:37 18.49826 -77.92168 39 ft 10 kts 245°
2026-04-24 19:37 18.49800 -77.92227 38 ft 8 kts 245°
2026-04-24 19:37 18.49775 -77.92283 29 ft 8 kts 245°
2026-04-24 19:38 18.49754 -77.92332 37 ft 6 kts 245°
2026-04-24 19:38 18.49752 -77.92338 32 ft 0 kts 245°
2026-04-24 19:40 18.49749 -77.92343 34 ft 1 kts 245°
2026-04-24 19:40 18.49742 -77.92362 38 ft 3 kts 246°
2026-04-24 19:40 18.49751 -77.92395 39 ft 6 kts 313°
2026-04-24 19:40 18.49786 -77.92417 34 ft 7 kts 332°
2026-04-24 19:41 18.49836 -77.92445 36 ft 10 kts 332°
2026-04-24 19:41 18.49882 -77.92454 33 ft 5 kts 49°
2026-04-24 19:41 18.49888 -77.92441 37 ft 0 kts 66°
2026-04-24 19:43 18.49961 -77.92270 37 ft 63 kts 65°
2026-04-24 19:43 18.50243 -77.91627 35 ft 127 kts 65°
2026-04-24 19:43 18.50680 -77.90631 224 ft 159 kts 65°
2026-04-24 19:43 18.51114 -77.89594 1021 ft 153 kts 66°
2026-04-24 19:44 18.51725 -77.88666 1611 ft 158 kts 49°
2026-04-24 19:44 18.52473 -77.87753 1950 ft 174 kts 50°
2026-04-24 19:44 18.53310 -77.86726 2159 ft 195 kts 50°
2026-04-24 19:44 18.54240 -77.85580 2317 ft 216 kts 50°
2026-04-24 19:45 18.55259 -77.84318 2444 ft 238 kts 51°
2026-04-24 19:45 18.56363 -77.82900 2628 ft 263 kts 57°
2026-04-24 19:45 18.56897 -77.81058 3098 ft 269 kts 94°
2026-04-24 19:45 18.56351 -77.79198 3735 ft 269 kts 122°
2026-04-24 19:46 18.55270 -77.77587 4452 ft 270 kts 132°
2026-04-24 19:46 18.54028 -77.76099 5171 ft 272 kts 135°
2026-04-24 19:46 18.52734 -77.74623 5853 ft 276 kts 135°
2026-04-24 19:46 18.51434 -77.73116 6512 ft 280 kts 134°
2026-04-24 19:47 18.50138 -77.71565 7169 ft 284 kts 133°
2026-04-24 19:47 18.48844 -77.69971 7802 ft 289 kts 132°
2026-04-24 19:47 18.47546 -77.68340 8416 ft 293 kts 131°
2026-04-24 19:47 18.46237 -77.66675 9017 ft 297 kts 131°
2026-04-24 19:48 18.44919 -77.64987 9647 ft 300 kts 131°
2026-04-24 19:48 18.43587 -77.63272 10195 ft 306 kts 131°
2026-04-24 19:48 18.40708 -77.59575 10460 ft 346 kts 131°
2026-04-24 19:49 18.37608 -77.55601 11316 ft 358 kts 131°
2026-04-24 19:49 18.34416 -77.51502 12376 ft 365 kts 132°
2026-04-24 19:50 18.29506 -77.45225 13956 ft 375 kts 131°
2026-04-24 19:50 18.27841 -77.43096 14400 ft 379 kts 132°
2026-04-24 19:51 18.24461 -77.38785 15290 ft 385 kts 132°
2026-04-24 19:51 18.22755 -77.36599 15746 ft 388 kts 131°
2026-04-24 19:52 18.19969 -77.31646 16613 ft 399 kts 120°
2026-04-24 19:52 18.18684 -77.29050 17029 ft 402 kts 120°
2026-04-24 19:52 18.17386 -77.26435 17442 ft 405 kts 121°
2026-04-24 19:52 18.16074 -77.23800 17873 ft 408 kts 121°
2026-04-24 19:53 18.14750 -77.21144 18269 ft 412 kts 121°
2026-04-24 19:53 18.13414 -77.18473 18619 ft 414 kts 121°
2026-04-24 19:53 18.10709 -77.13080 19282 ft 419 kts 121°
2026-04-24 19:54 18.09350 -77.10359 19618 ft 422 kts 121°
2026-04-24 19:54 18.07984 -77.07624 19923 ft 424 kts 121°
2026-04-24 19:54 18.06608 -77.04871 20211 ft 427 kts 121°
2026-04-24 19:54 18.05226 -77.02105 20512 ft 428 kts 121°
2026-04-24 19:55 18.04308 -77.00266 20706 ft 430 kts 121°
2026-04-24 19:55 18.02440 -76.96535 21104 ft 433 kts 121°
2026-04-24 19:55 18.01034 -76.93732 21406 ft 435 kts 121°
2026-04-24 19:55 17.99621 -76.90916 21710 ft 437 kts 121°
2026-04-24 19:56 17.98202 -76.88085 22004 ft 439 kts 121°
2026-04-24 19:56 17.96777 -76.85242 22297 ft 441 kts 121°
2026-04-24 19:56 17.95341 -76.82382 22589 ft 443 kts 121°
2026-04-24 19:56 17.93898 -76.79510 22877 ft 446 kts 121°
2026-04-24 19:57 17.92464 -76.76617 23177 ft 449 kts 120°
2026-04-24 19:57 17.91120 -76.73648 23465 ft 452 kts 118°
2026-04-24 19:57 17.89855 -76.70613 23716 ft 455 kts 116°
2026-04-24 19:57 17.88634 -76.67546 23981 ft 457 kts 116°
2026-04-24 19:58 17.87416 -76.64460 24235 ft 459 kts 116°
2026-04-24 19:58 17.86176 -76.61366 24499 ft 460 kts 117°
2026-04-24 19:58 17.84909 -76.58275 24775 ft 462 kts 117°
2026-04-24 19:58 17.83617 -76.55182 25052 ft 463 kts 117°
2026-04-24 19:59 17.82309 -76.52089 25324 ft 465 kts 118°
2026-04-24 19:59 17.80990 -76.48979 25591 ft 467 kts 118°
2026-04-24 19:59 17.79669 -76.45861 25861 ft 469 kts 118°
2026-04-24 19:59 17.78346 -76.42728 26122 ft 471 kts 118°
2026-04-24 20:00 17.77023 -76.39575 26382 ft 473 kts 118°
2026-04-24 20:00 17.75702 -76.36411 26641 ft 474 kts 118°
2026-04-24 20:00 17.74374 -76.33239 26897 ft 476 kts 118°
2026-04-24 20:00 17.73033 -76.30049 27150 ft 478 kts 118°
2026-04-24 20:01 17.71688 -76.26860 27401 ft 480 kts 118°
2026-04-24 20:01 17.70337 -76.23655 27648 ft 481 kts 118°
2026-04-24 20:01 17.68981 -76.20438 27897 ft 483 kts 118°
2026-04-24 20:01 17.67637 -76.17251 28136 ft 485 kts 118°
2026-04-24 20:02 17.66714 -76.15064 28304 ft 486 kts 118°
2026-04-24 20:02 17.64898 -76.10762 28600 ft 488 kts 118°
2026-04-24 20:02 17.63520 -76.07504 28833 ft 490 kts 118°
2026-04-24 20:02 17.62135 -76.04233 29062 ft 492 kts 119°
2026-04-24 20:03 17.60747 -76.00948 29282 ft 493 kts 119°
2026-04-24 20:03 17.59353 -75.97657 29505 ft 495 kts 119°
2026-04-24 20:03 17.57954 -75.94354 29707 ft 497 kts 119°
2026-04-24 20:03 17.56550 -75.91036 29899 ft 498 kts 119°
2026-04-24 20:04 17.55145 -75.87712 30068 ft 500 kts 119°
2026-04-24 20:04 17.53735 -75.84379 30216 ft 501 kts 119°
2026-04-24 20:04 17.52319 -75.81036 30362 ft 503 kts 119°
2026-04-24 20:04 17.50899 -75.77686 30496 ft 504 kts 119°
2026-04-24 20:05 17.49472 -75.74330 30625 ft 505 kts 119°
2026-04-24 20:05 17.48040 -75.70959 30780 ft 506 kts 119°
2026-04-24 20:05 17.46609 -75.67592 30973 ft 506 kts 119°
2026-04-24 20:05 17.45179 -75.64228 31174 ft 506 kts 119°
2026-04-24 20:06 17.43772 -75.60912 31362 ft 505 kts 119°
2026-04-24 20:06 17.42345 -75.57550 31562 ft 505 kts 119°
2026-04-24 20:06 17.40914 -75.54187 31746 ft 505 kts 120°
2026-04-24 20:06 17.39482 -75.50828 31937 ft 505 kts 120°
2026-04-24 20:07 17.38512 -75.48554 32079 ft 505 kts 120°
2026-04-24 20:07 17.36610 -75.44107 32319 ft 506 kts 120°
2026-04-24 20:07 17.35174 -75.40750 32510 ft 506 kts 120°
2026-04-24 20:07 17.33738 -75.37393 32709 ft 505 kts 120°
2026-04-24 20:08 17.32303 -75.34037 32901 ft 505 kts 120°
2026-04-24 20:08 17.30869 -75.30679 33107 ft 505 kts 120°
2026-04-24 20:08 17.29436 -75.27318 33300 ft 505 kts 120°
2026-04-24 20:08 17.28004 -75.23962 33500 ft 505 kts 120°
2026-04-24 20:09 17.26575 -75.20612 33689 ft 505 kts 120°
2026-04-24 20:09 17.25142 -75.17260 33886 ft 504 kts 120°
2026-04-24 20:09 17.23709 -75.13914 34068 ft 504 kts 120°
2026-04-24 20:09 17.22275 -75.10572 34252 ft 503 kts 120°
2026-04-24 20:10 17.20843 -75.07240 34453 ft 502 kts 120°
2026-04-24 20:10 17.19411 -75.03917 34662 ft 500 kts 120°
2026-04-24 20:10 17.17981 -75.00602 34858 ft 499 kts 120°
2026-04-24 20:11 17.15150 -74.94015 34942 ft 497 kts 120°
2026-04-24 20:11 17.12292 -74.87375 34924 ft 503 kts 120°
2026-04-24 20:12 17.09417 -74.80713 34934 ft 508 kts 120°
2026-04-24 20:12 17.06977 -74.75069 34929 ft 509 kts 120°
2026-04-24 20:13 17.03599 -74.67230 34926 ft 509 kts 120°
2026-04-24 20:13 17.00698 -74.60495 34928 ft 508 kts 120°
2026-04-24 20:14 16.97786 -74.53760 34934 ft 509 kts 120°
2026-04-24 20:14 16.94863 -74.47031 34938 ft 509 kts 120°
2026-04-24 20:15 16.91935 -74.40303 34943 ft 509 kts 120°
2026-04-24 20:15 16.89013 -74.33573 34945 ft 509 kts 120°
2026-04-24 20:16 16.86592 -74.27982 34944 ft 508 kts 120°
2026-04-24 20:16 16.83203 -74.20173 34944 ft 508 kts 120°
2026-04-24 20:17 16.80276 -74.13461 34944 ft 508 kts 120°
2026-04-24 20:17 16.76367 -74.04483 34948 ft 508 kts 120°
2026-04-24 20:18 16.73457 -73.97818 34946 ft 508 kts 121°
2026-04-24 20:18 16.70523 -73.91110 34946 ft 508 kts 120°
2026-04-24 20:19 16.67591 -73.84410 34943 ft 508 kts 121°
2026-04-24 20:19 16.64657 -73.77713 34946 ft 507 kts 120°
2026-04-24 20:20 16.61724 -73.71022 34947 ft 507 kts 120°
2026-04-24 20:20 16.58794 -73.64335 34947 ft 507 kts 120°
2026-04-24 20:21 16.55857 -73.57657 34946 ft 506 kts 121°
2026-04-24 20:21 16.52924 -73.50988 34947 ft 506 kts 120°
2026-04-24 20:22 16.49993 -73.44322 34941 ft 506 kts 121°
2026-04-24 20:22 16.47045 -73.37678 34942 ft 505 kts 121°
2026-04-24 20:23 16.44094 -73.31044 34940 ft 504 kts 121°
2026-04-24 20:23 16.41170 -73.24457 34942 ft 504 kts 121°
2026-04-24 20:24 16.38230 -73.17830 34941 ft 504 kts 121°
2026-04-24 20:24 16.35283 -73.11211 34940 ft 503 kts 121°
2026-04-24 20:25 16.32343 -73.04603 34945 ft 503 kts 121°
2026-04-24 20:25 16.29401 -72.97993 34937 ft 503 kts 121°
2026-04-24 20:26 16.26454 -72.91387 34937 ft 503 kts 121°
2026-04-24 20:26 16.23501 -72.84789 34936 ft 503 kts 121°
2026-04-24 20:27 16.20547 -72.78190 34935 ft 503 kts 121°
2026-04-24 20:27 16.17610 -72.71629 34935 ft 503 kts 121°
2026-04-24 20:28 16.14649 -72.65030 34935 ft 503 kts 121°
2026-04-24 20:28 16.11690 -72.58435 34937 ft 503 kts 121°
2026-04-24 20:29 16.08727 -72.51848 34940 ft 503 kts 121°
2026-04-24 20:29 16.05761 -72.45256 34940 ft 503 kts 121°
2026-04-24 20:30 16.02799 -72.38671 34940 ft 503 kts 121°
2026-04-24 20:30 15.99839 -72.32093 34943 ft 502 kts 121°
2026-04-24 20:31 15.96870 -72.25520 34940 ft 502 kts 121°
2026-04-24 20:31 15.93879 -72.18974 34939 ft 501 kts 121°
2026-04-24 20:32 15.90908 -72.12472 34938 ft 501 kts 121°
2026-04-24 20:32 15.87909 -72.05942 34938 ft 501 kts 121°
2026-04-24 20:33 15.84909 -71.99403 34937 ft 501 kts 121°
2026-04-24 20:33 15.81919 -71.92865 34936 ft 501 kts 121°
2026-04-24 20:34 15.78923 -71.86329 34936 ft 501 kts 121°
2026-04-24 20:34 15.75924 -71.79795 34934 ft 501 kts 121°
2026-04-24 20:35 15.72926 -71.73264 34934 ft 501 kts 121°
2026-04-24 20:35 15.69937 -71.66775 34931 ft 502 kts 121°
2026-04-24 20:36 15.66921 -71.60248 34930 ft 502 kts 121°
2026-04-24 20:36 15.63910 -71.53712 34933 ft 502 kts 120°
2026-04-24 20:37 15.60904 -71.47172 34934 ft 502 kts 120°
2026-04-24 20:37 15.57891 -71.40638 34939 ft 502 kts 120°
2026-04-24 20:38 15.54875 -71.34123 34936 ft 501 kts 120°
2026-04-24 20:38 15.51882 -71.27598 34938 ft 501 kts 120°
2026-04-24 20:39 15.48981 -71.21031 34939 ft 501 kts 119°
2026-04-24 20:39 15.46128 -71.14506 34940 ft 500 kts 119°
2026-04-24 20:40 15.43236 -71.07962 34939 ft 499 kts 120°
2026-04-24 20:40 15.40325 -71.01449 34941 ft 497 kts 120°
2026-04-24 20:41 15.37414 -70.94953 34940 ft 496 kts 120°
2026-04-24 20:41 15.34501 -70.88482 34943 ft 495 kts 120°
2026-04-24 20:42 15.31546 -70.82053 34940 ft 493 kts 120°
2026-04-24 20:42 15.28587 -70.75650 34937 ft 492 kts 120°
2026-04-24 20:43 15.25657 -70.69290 34938 ft 492 kts 120°
2026-04-24 20:43 15.22728 -70.62891 34938 ft 492 kts 120°
2026-04-24 20:44 15.19797 -70.56501 34935 ft 491 kts 120°
2026-04-24 20:44 15.16858 -70.50117 34930 ft 491 kts 120°
2026-04-24 20:45 15.13914 -70.43749 34928 ft 491 kts 120°
2026-04-24 20:45 15.10976 -70.37376 34931 ft 491 kts 120°
2026-04-24 20:46 15.08335 -70.30851 34929 ft 497 kts 109°
2026-04-24 20:46 15.07024 -70.23795 34926 ft 500 kts 104°
2026-04-24 20:47 15.05783 -70.16720 34926 ft 500 kts 104°
2026-04-24 20:47 15.04533 -70.09700 34928 ft 500 kts 104°
2026-04-24 20:48 15.03279 -70.02625 34933 ft 500 kts 104°
2026-04-24 20:48 15.02084 -69.95532 34934 ft 501 kts 103°
2026-04-24 20:49 15.00936 -69.88432 34934 ft 501 kts 103°
2026-04-24 20:49 14.99781 -69.81331 34936 ft 500 kts 103°
2026-04-24 20:50 14.98602 -69.74244 34934 ft 500 kts 103°
2026-04-24 20:50 14.97414 -69.67158 34935 ft 500 kts 104°
2026-04-24 20:51 14.96230 -69.60081 34930 ft 499 kts 103°
2026-04-24 20:51 14.95049 -69.53004 34932 ft 500 kts 103°
2026-04-24 20:52 14.93884 -69.45969 34931 ft 500 kts 103°
2026-04-24 20:52 14.92702 -69.38879 34938 ft 500 kts 103°
2026-04-24 20:53 14.91509 -69.31799 34937 ft 500 kts 103°
2026-04-24 20:53 14.90312 -69.24722 34931 ft 500 kts 104°
2026-04-24 20:54 14.89085 -69.17658 34933 ft 499 kts 104°
2026-04-24 20:54 14.87849 -69.10592 34935 ft 500 kts 104°
2026-04-24 20:55 14.86626 -69.03520 34935 ft 500 kts 103°
2026-04-24 20:55 14.85426 -68.96445 34936 ft 500 kts 103°
2026-04-24 20:56 14.84231 -68.89368 34942 ft 500 kts 103°
2026-04-24 20:56 14.83036 -68.82300 34937 ft 499 kts 103°
2026-04-24 20:57 14.81824 -68.75282 34947 ft 499 kts 104°
2026-04-24 20:57 14.80573 -68.68240 34938 ft 498 kts 104°
2026-04-24 20:58 14.79317 -68.61195 34948 ft 498 kts 104°
2026-04-24 20:58 14.78084 -68.54155 34935 ft 498 kts 103°
2026-04-24 20:59 14.76852 -68.47117 34935 ft 498 kts 103°
2026-04-24 20:59 14.75616 -68.40085 34944 ft 497 kts 104°
2026-04-24 21:00 14.74372 -68.33059 34931 ft 497 kts 104°
2026-04-24 21:00 14.73131 -68.26083 34936 ft 497 kts 104°
2026-04-24 21:01 14.71896 -68.19055 34927 ft 497 kts 104°
2026-04-24 21:01 14.70659 -68.12035 34926 ft 497 kts 104°
2026-04-24 21:02 14.69420 -68.05020 34922 ft 496 kts 104°
2026-04-24 21:02 14.68173 -67.98011 34930 ft 496 kts 104°
2026-04-24 21:03 14.66915 -67.91004 34918 ft 496 kts 104°
2026-04-24 21:03 14.65670 -67.83995 34929 ft 497 kts 104°
2026-04-24 21:04 14.64438 -67.77023 34921 ft 497 kts 104°
2026-04-24 21:04 14.63187 -67.70011 34926 ft 497 kts 104°
2026-04-24 21:05 14.61930 -67.62996 34928 ft 497 kts 104°
2026-04-24 21:05 14.60670 -67.55979 34936 ft 497 kts 104°
2026-04-24 21:06 14.59411 -67.48958 34933 ft 497 kts 104°
2026-04-24 21:06 14.58158 -67.41940 34930 ft 497 kts 104°
2026-04-24 21:07 14.56890 -67.34927 34928 ft 497 kts 104°
2026-04-24 21:07 14.55617 -67.27910 34940 ft 498 kts 104°
2026-04-24 21:08 14.54445 -67.20870 34932 ft 498 kts 103°
2026-04-24 21:08 14.53318 -67.13818 34928 ft 498 kts 103°
2026-04-24 21:09 14.52169 -67.06776 34932 ft 498 kts 103°
2026-04-24 21:09 14.50997 -66.99738 34946 ft 498 kts 103°
2026-04-24 21:10 14.49824 -66.92703 34937 ft 497 kts 103°
2026-04-24 21:10 14.48658 -66.85713 34942 ft 498 kts 103°
2026-04-24 21:11 14.47484 -66.78680 34945 ft 497 kts 103°
2026-04-24 21:11 14.46304 -66.71651 34937 ft 497 kts 103°
2026-04-24 21:12 14.45287 -66.65772 34934 ft 496 kts 105°
2026-04-24 21:12 14.43486 -66.57727 34938 ft 494 kts 108°
2026-04-24 21:13 14.41749 -66.50870 34943 ft 494 kts 108°
2026-04-24 21:13 14.40073 -66.43993 34937 ft 494 kts 107°
2026-04-24 21:14 14.38458 -66.37100 34944 ft 494 kts 107°
2026-04-24 21:14 14.36848 -66.30211 34940 ft 494 kts 107°
2026-04-24 21:15 14.35221 -66.23330 34944 ft 494 kts 107°
2026-04-24 21:15 14.33594 -66.16456 34942 ft 493 kts 107°
2026-04-24 21:16 14.31967 -66.09580 34948 ft 493 kts 107°
2026-04-24 21:16 14.30345 -66.02760 34948 ft 493 kts 107°
2026-04-24 21:17 14.28974 -65.97015 34946 ft 493 kts 107°
2026-04-24 21:17 14.27339 -65.90154 34954 ft 493 kts 107°
2026-04-24 21:18 14.25445 -65.82181 34950 ft 493 kts 107°
2026-04-24 21:18 14.24083 -65.76432 34951 ft 492 kts 107°
2026-04-24 21:19 14.22448 -65.69590 34948 ft 492 kts 107°
2026-04-24 21:19 14.20815 -65.62794 34953 ft 492 kts 107°
2026-04-24 21:20 14.18360 -65.52542 34950 ft 491 kts 107°
2026-04-24 21:21 14.16718 -65.45708 34949 ft 491 kts 107°
2026-04-24 21:21 14.15070 -65.38881 34948 ft 491 kts 107°
2026-04-24 21:22 14.13422 -65.32055 34952 ft 491 kts 107°
2026-04-24 21:22 14.11790 -65.25228 34950 ft 491 kts 107°
2026-04-24 21:23 14.10152 -65.18395 34950 ft 491 kts 107°
2026-04-24 21:23 14.08237 -65.11677 34950 ft 486 kts 118°
2026-04-24 21:24 14.04648 -65.05904 34946 ft 475 kts 136°
2026-04-24 21:24 14.00073 -65.01030 34936 ft 474 kts 138°
2026-04-24 21:25 13.95476 -64.96164 34933 ft 474 kts 138°
2026-04-24 21:25 13.90873 -64.91295 34936 ft 475 kts 138°
2026-04-24 21:26 13.86287 -64.86467 34936 ft 475 kts 138°
2026-04-24 21:26 13.81648 -64.81637 34941 ft 474 kts 138°
2026-04-24 21:27 13.77015 -64.76817 34937 ft 474 kts 138°
2026-04-24 21:27 13.72387 -64.71986 34942 ft 474 kts 138°
2026-04-24 21:28 13.67761 -64.67151 34941 ft 474 kts 138°
2026-04-24 21:28 13.63137 -64.62327 34946 ft 474 kts 138°
2026-04-24 21:29 13.58510 -64.57502 34942 ft 474 kts 138°
2026-04-24 21:29 13.53915 -64.52716 34941 ft 473 kts 138°
2026-04-24 21:30 13.49279 -64.47909 34942 ft 473 kts 138°
2026-04-24 21:30 13.44654 -64.43102 34945 ft 473 kts 138°
2026-04-24 21:31 13.40033 -64.38287 34940 ft 473 kts 138°
2026-04-24 21:31 13.35404 -64.33479 34942 ft 473 kts 138°
2026-04-24 21:32 13.30770 -64.28680 34942 ft 473 kts 138°
2026-04-24 21:32 13.26131 -64.23894 34940 ft 473 kts 138°
2026-04-24 21:33 13.21520 -64.19131 34940 ft 473 kts 138°
2026-04-24 21:33 13.16882 -64.14338 34937 ft 473 kts 138°
2026-04-24 21:34 13.12240 -64.09541 34938 ft 473 kts 138°
2026-04-24 21:34 13.07577 -64.04718 34936 ft 473 kts 138°
2026-04-24 21:35 13.02971 -63.99959 34936 ft 473 kts 138°
2026-04-24 21:35 12.98334 -63.95178 34935 ft 473 kts 138°
2026-04-24 21:36 12.93697 -63.90398 34936 ft 472 kts 138°
2026-04-24 21:36 12.89070 -63.85632 34939 ft 472 kts 138°
2026-04-24 21:37 12.84446 -63.80867 34939 ft 471 kts 138°
2026-04-24 21:37 12.79823 -63.76110 34941 ft 471 kts 138°
2026-04-24 21:38 12.75199 -63.71363 34946 ft 470 kts 138°
2026-04-24 21:38 12.70585 -63.66616 34947 ft 470 kts 137°
2026-04-24 21:39 12.65978 -63.61879 34946 ft 469 kts 137°
2026-04-24 21:39 12.61366 -63.57156 34940 ft 468 kts 137°
2026-04-24 21:40 12.56817 -63.52484 34915 ft 455 kts 137°
2026-04-24 21:40 12.54618 -63.50223 34919 ft 440 kts 137°
2026-04-24 21:40 12.52501 -63.48042 34918 ft 424 kts 137°
2026-04-24 21:40 12.50461 -63.45943 34477 ft 410 kts 138°
2026-04-24 21:41 12.48432 -63.43852 32862 ft 421 kts 135°
2026-04-24 21:41 12.46610 -63.41481 31693 ft 424 kts 125°
2026-04-24 21:41 12.45172 -63.38812 30734 ft 436 kts 116°
2026-04-24 21:41 12.44168 -63.35838 29640 ft 450 kts 106°
2026-04-24 21:42 12.43421 -63.32710 28916 ft 450 kts 106°
2026-04-24 21:42 12.42691 -63.29630 28425 ft 443 kts 106°
2026-04-24 21:42 12.41964 -63.26582 27875 ft 438 kts 106°
2026-04-24 21:42 12.41244 -63.23574 27336 ft 434 kts 106°
2026-04-24 21:43 12.40531 -63.20591 26815 ft 429 kts 106°
2026-04-24 21:43 12.39827 -63.17651 26307 ft 424 kts 106°
2026-04-24 21:43 12.39127 -63.14738 25814 ft 418 kts 106°
2026-04-24 21:43 12.38435 -63.11868 25334 ft 413 kts 106°
2026-04-24 21:44 12.37754 -63.09041 24863 ft 407 kts 106°
2026-04-24 21:44 12.37083 -63.06253 24400 ft 401 kts 106°
2026-04-24 21:44 12.36419 -63.03501 23943 ft 397 kts 106°
2026-04-24 21:44 12.35760 -63.00774 23480 ft 393 kts 106°
2026-04-24 21:45 12.35108 -62.98076 22962 ft 388 kts 105°
2026-04-24 21:45 12.34475 -62.95447 22524 ft 383 kts 105°
2026-04-24 21:45 12.33843 -62.92826 22061 ft 378 kts 105°
2026-04-24 21:45 12.33218 -62.90232 21606 ft 373 kts 106°
2026-04-24 21:46 12.32596 -62.87669 21161 ft 369 kts 105°
2026-04-24 21:46 12.31984 -62.85134 20701 ft 366 kts 105°
2026-04-24 21:46 12.31377 -62.82621 20249 ft 363 kts 105°
2026-04-24 21:46 12.30773 -62.80126 19795 ft 360 kts 105°
2026-04-24 21:47 12.30174 -62.77652 19351 ft 357 kts 105°
2026-04-24 21:47 12.29772 -62.75992 19053 ft 355 kts 105°
2026-04-24 21:47 12.28993 -62.72761 18472 ft 352 kts 105°
2026-04-24 21:47 12.28407 -62.70336 18003 ft 350 kts 105°
2026-04-24 21:48 12.27825 -62.67933 17553 ft 346 kts 105°
2026-04-24 21:48 12.27249 -62.65560 17129 ft 342 kts 105°
2026-04-24 21:48 12.26682 -62.63215 16714 ft 338 kts 105°
2026-04-24 21:48 12.26119 -62.60897 16291 ft 334 kts 105°
2026-04-24 21:49 12.25561 -62.58604 15898 ft 331 kts 105°
2026-04-24 21:49 12.25012 -62.56336 15495 ft 328 kts 105°
2026-04-24 21:49 12.24465 -62.54085 15103 ft 325 kts 105°
2026-04-24 21:49 12.23921 -62.51853 14705 ft 322 kts 105°
2026-04-24 21:50 12.23382 -62.49634 14314 ft 321 kts 105°
2026-04-24 21:50 12.22847 -62.47427 13918 ft 319 kts 105°
2026-04-24 21:50 12.22316 -62.45228 13500 ft 318 kts 104°
2026-04-24 21:50 12.21787 -62.43046 13093 ft 316 kts 105°
2026-04-24 21:51 12.21260 -62.40873 12690 ft 313 kts 105°
2026-04-24 21:51 12.20737 -62.38718 12288 ft 311 kts 105°
2026-04-24 21:51 12.20218 -62.36580 11898 ft 309 kts 105°
2026-04-24 21:51 12.19701 -62.34457 11502 ft 307 kts 105°
2026-04-24 21:52 12.19187 -62.32349 11106 ft 305 kts 105°
2026-04-24 21:52 12.18474 -62.30335 10490 ft 299 kts 119°
2026-04-24 21:52 12.17482 -62.28459 9813 ft 302 kts 120°
2026-04-24 21:52 12.16475 -62.26600 9444 ft 297 kts 120°
2026-04-24 21:53 12.15471 -62.24756 9027 ft 295 kts 120°
2026-04-24 21:53 12.14485 -62.22935 8625 ft 292 kts 120°
2026-04-24 21:53 12.13508 -62.21130 8212 ft 288 kts 120°
2026-04-24 21:53 12.12551 -62.19363 7524 ft 282 kts 119°
2026-04-24 21:54 12.11615 -62.17637 7042 ft 275 kts 119°
2026-04-24 21:54 12.10687 -62.15924 6632 ft 275 kts 119°
2026-04-24 21:54 12.09763 -62.14216 6212 ft 273 kts 119°
2026-04-24 21:54 12.08845 -62.12521 5821 ft 270 kts 118°
2026-04-24 21:55 12.07949 -62.10861 5376 ft 269 kts 118°
2026-04-24 21:55 12.07050 -62.09187 4906 ft 270 kts 118°
2026-04-24 21:55 12.06162 -62.07535 4638 ft 262 kts 118°
2026-04-24 21:55 12.05288 -62.05915 4254 ft 259 kts 118°
2026-04-24 21:56 12.04422 -62.04313 3841 ft 257 kts 118°
2026-04-24 21:56 12.03562 -62.02718 3451 ft 255 kts 118°
2026-04-24 21:56 12.02707 -62.01132 3044 ft 254 kts 117°
2026-04-24 21:56 12.01855 -61.99555 2645 ft 252 kts 117°
2026-04-24 21:57 12.01040 -61.98045 2379 ft 231 kts 114°
2026-04-24 21:57 12.00548 -61.96545 1947 ft 217 kts 99°
2026-04-24 21:57 12.00490 -61.95065 1714 ft 200 kts 89°
2026-04-24 21:57 12.00494 -61.93751 1708 ft 171 kts 90°
2026-04-24 21:58 12.00487 -61.92598 1696 ft 156 kts 90°
2026-04-24 21:58 12.00481 -61.91518 1692 ft 150 kts 91°
2026-04-24 21:58 12.00476 -61.90465 1708 ft 146 kts 91°
2026-04-24 21:58 12.00469 -61.89432 1713 ft 144 kts 90°
2026-04-24 21:59 12.00463 -61.88406 1708 ft 147 kts 90°
2026-04-24 21:59 12.00457 -61.87353 1523 ft 147 kts 91°
2026-04-24 21:59 12.00452 -61.86333 1316 ft 142 kts 91°
2026-04-24 21:59 12.00445 -61.85330 1114 ft 141 kts 90°
2026-04-24 22:00 12.00439 -61.84339 928 ft 139 kts 90°
2026-04-24 22:00 12.00434 -61.83342 752 ft 141 kts 91°
2026-04-24 22:00 12.00433 -61.82347 547 ft 140 kts 91°
2026-04-24 22:00 12.00425 -61.81361 354 ft 138 kts 93°
2026-04-24 22:01 12.00416 -61.80379 177 ft 139 kts 92°
2026-04-24 22:01 12.00411 -61.79402 39 ft 131 kts 92°
2026-04-24 22:01 12.00406 -61.78643 42 ft 78 kts 90°
2026-04-24 22:01 12.00405 -61.78222 36 ft 40 kts 90°
2026-04-24 22:02 12.00396 -61.78047 34 ft 11 kts 63°
2026-04-24 22:02 12.00411 -61.78049 33 ft 3 kts 281°
2026-04-24 22:02 12.00412 -61.78144 31 ft 23 kts 269°
2026-04-24 22:02 12.00409 -61.78314 38 ft 23 kts 269°
2026-04-24 22:03 12.00406 -61.78470 41 ft 21 kts 270°
2026-04-24 22:03 12.00439 -61.78590 42 ft 17 kts 336°
2026-04-24 22:03 12.00532 -61.78597 43 ft 10 kts 359°
2026-04-24 22:03 12.00563 -61.78597 44 ft 1 kts
2026-04-24 22:04 12.00565 -61.78596 44 ft 0 kts
2026-04-24 22:04 12.00588 -61.78563 45 ft 10 kts 75°
2026-04-24 22:04 12.00623 -61.78533 46 ft 6 kts
2026-04-24 22:04 12.00649 -61.78533 45 ft 2 kts 360°
2026-04-24 22:05 12.00661 -61.78533 47 ft 2 kts
2026-04-24 22:05 12.00662 -61.78533 48 ft 0 kts